Year,Month,Day,Hour,Minute,Value (Times are PST for windspeed in km/hr)
2008,02,06,00,00,0.90
2008,02,06,00,01,7.80
2008,02,06,00,02,11.50
2008,02,06,00,03,7.30
2008,02,06,00,04,3.00
2008,02,06,00,05,3.60
2008,02,06,00,06,7.90
2008,02,06,00,07,5.80
2008,02,06,00,08,4.70
2008,02,06,00,09,6.40
2008,02,06,00,10,7.60
2008,02,06,00,11,8.20
2008,02,06,00,12,10.70
2008,02,06,00,13,7.50
2008,02,06,00,14,8.10
2008,02,06,00,15,6.40
2008,02,06,00,16,8.70
2008,02,06,00,17,7.00
2008,02,06,00,18,8.60
2008,02,06,00,19,7.30
2008,02,06,00,20,8.10
2008,02,06,00,21,5.50
2008,02,06,00,22,4.00
2008,02,06,00,23,4.60
2008,02,06,00,24,8.00
2008,02,06,00,25,4.00
2008,02,06,00,26,5.90
2008,02,06,00,27,7.00
2008,02,06,00,28,6.80
2008,02,06,00,29,5.80
2008,02,06,00,30,7.70
2008,02,06,00,31,7.40
2008,02,06,00,32,3.70
2008,02,06,00,33,6.60
2008,02,06,00,34,3.90
2008,02,06,00,35,5.30
2008,02,06,00,36,5.80
2008,02,06,00,37,6.40
2008,02,06,00,38,3.20
2008,02,06,00,39,2.40
2008,02,06,00,40,2.70
2008,02,06,00,41,6.00
2008,02,06,00,42,8.80
2008,02,06,00,43,6.40
2008,02,06,00,44,10.80
2008,02,06,00,45,10.40
2008,02,06,00,46,7.50
2008,02,06,00,47,4.10
2008,02,06,00,48,5.80
2008,02,06,00,49,5.70
2008,02,06,00,50,7.20
2008,02,06,00,51,4.70
2008,02,06,00,52,4.10
2008,02,06,00,53,4.10
2008,02,06,00,54,6.00
2008,02,06,00,55,4.70
2008,02,06,00,56,6.50
2008,02,06,00,57,8.60
2008,02,06,00,58,7.10
2008,02,06,00,59,7.20
2008,02,06,01,00,6.30
2008,02,06,01,01,4.20
2008,02,06,01,02,4.70
2008,02,06,01,03,4.50
2008,02,06,01,04,4.50
2008,02,06,01,05,8.10
2008,02,06,01,06,6.90
2008,02,06,01,07,6.30
2008,02,06,01,08,3.60
2008,02,06,01,09,3.80
2008,02,06,01,10,5.20
2008,02,06,01,11,6.40
2008,02,06,01,12,4.00
2008,02,06,01,13,5.60
2008,02,06,01,14,7.70
2008,02,06,01,15,4.50
2008,02,06,01,16,6.10
2008,02,06,01,17,4.70
2008,02,06,01,18,6.30
2008,02,06,01,19,2.20
2008,02,06,01,20,4.10
2008,02,06,01,21,6.60
2008,02,06,01,22,6.70
2008,02,06,01,23,7.70
2008,02,06,01,24,8.00
2008,02,06,01,25,6.80
2008,02,06,01,26,6.50
2008,02,06,01,27,6.10
2008,02,06,01,28,5.20
2008,02,06,01,29,8.50
2008,02,06,01,30,8.80
2008,02,06,01,31,4.60
2008,02,06,01,32,6.40
2008,02,06,01,33,8.90
2008,02,06,01,34,9.90
2008,02,06,01,35,8.10
2008,02,06,01,36,8.50
2008,02,06,01,37,8.40
2008,02,06,01,38,6.40
2008,02,06,01,39,1.90
2008,02,06,01,40,7.80
2008,02,06,01,41,10.40
2008,02,06,01,42,9.30
2008,02,06,01,43,10.10
2008,02,06,01,44,7.70
2008,02,06,01,45,9.20
2008,02,06,01,46,10.50
2008,02,06,01,47,8.20
2008,02,06,01,48,8.40
2008,02,06,01,49,9.10
2008,02,06,01,50,11.70
2008,02,06,01,51,3.10
2008,02,06,01,52,5.90
2008,02,06,01,53,8.50
2008,02,06,01,54,8.00
2008,02,06,01,55,11.90
2008,02,06,01,56,11.20
2008,02,06,01,57,12.50
2008,02,06,01,58,10.80
2008,02,06,01,59,11.70
2008,02,06,02,00,8.20
2008,02,06,02,01,7.70
2008,02,06,02,02,5.20
2008,02,06,02,03,8.50
2008,02,06,02,04,3.80
2008,02,06,02,05,9.20
2008,02,06,02,06,7.40
2008,02,06,02,07,6.70
2008,02,06,02,08,7.60
2008,02,06,02,09,11.60
2008,02,06,02,10,10.90
2008,02,06,02,11,10.50
2008,02,06,02,12,9.40
2008,02,06,02,13,8.90
2008,02,06,02,14,7.40
2008,02,06,02,15,7.20
2008,02,06,02,16,7.50
2008,02,06,02,17,7.40
2008,02,06,02,18,6.50
2008,02,06,02,19,6.60
2008,02,06,02,20,7.30
2008,02,06,02,21,8.00
2008,02,06,02,22,4.10
2008,02,06,02,23,4.60
2008,02,06,02,24,4.90
2008,02,06,02,25,4.80
2008,02,06,02,26,7.60
2008,02,06,02,27,7.60
2008,02,06,02,28,6.50
2008,02,06,02,29,4.40
2008,02,06,02,30,3.40
2008,02,06,02,31,2.50
2008,02,06,02,32,3.10
2008,02,06,02,33,8.90
2008,02,06,02,34,2.00
2008,02,06,02,35,0.30
2008,02,06,02,36,2.30
2008,02,06,02,37,5.90
2008,02,06,02,38,6.40
2008,02,06,02,39,6.90
2008,02,06,02,40,8.10
2008,02,06,02,41,8.10
2008,02,06,02,42,6.40
2008,02,06,02,43,4.10
2008,02,06,02,44,3.00
2008,02,06,02,45,2.40
2008,02,06,02,46,1.70
2008,02,06,02,47,0.10
2008,02,06,02,48,1.40
2008,02,06,02,49,2.00
2008,02,06,02,50,1.30
2008,02,06,02,51,2.00
2008,02,06,02,52,2.10
2008,02,06,02,53,4.10
2008,02,06,02,54,4.10
2008,02,06,02,55,3.50
2008,02,06,02,56,3.60
2008,02,06,02,57,1.70
2008,02,06,02,58,0.00
2008,02,06,02,59,0.60
2008,02,06,03,00,4.20
2008,02,06,03,01,6.50
2008,02,06,03,02,6.30
2008,02,06,03,03,3.60
2008,02,06,03,04,2.70
2008,02,06,03,05,2.40
2008,02,06,03,06,3.20
2008,02,06,03,07,2.80
2008,02,06,03,08,3.00
2008,02,06,03,09,2.10
2008,02,06,03,10,2.40
2008,02,06,03,11,3.50
2008,02,06,03,12,6.20
2008,02,06,03,13,4.80
2008,02,06,03,14,3.50
2008,02,06,03,15,5.30
2008,02,06,03,16,6.70
2008,02,06,03,17,7.00
2008,02,06,03,18,2.60
2008,02,06,03,19,0.20
2008,02,06,03,20,3.00
2008,02,06,03,21,2.90
2008,02,06,03,22,1.50
2008,02,06,03,23,1.80
2008,02,06,03,24,0.90
2008,02,06,03,25,2.20
2008,02,06,03,26,1.80
2008,02,06,03,27,1.30
2008,02,06,03,28,2.90
2008,02,06,03,29,2.30
2008,02,06,03,30,0.30
2008,02,06,03,31,1.40
2008,02,06,03,32,0.60
2008,02,06,03,33,2.60
2008,02,06,03,34,2.70
2008,02,06,03,35,3.10
2008,02,06,03,36,5.60
2008,02,06,03,37,6.10
2008,02,06,03,38,6.40
2008,02,06,03,39,3.00
2008,02,06,03,40,2.60
2008,02,06,03,41,6.50
2008,02,06,03,42,7.20
2008,02,06,03,43,5.80
2008,02,06,03,44,4.20
2008,02,06,03,45,4.90
2008,02,06,03,46,4.00
2008,02,06,03,47,3.60
2008,02,06,03,48,3.00
2008,02,06,03,49,4.00
2008,02,06,03,50,2.70
2008,02,06,03,51,1.00
2008,02,06,03,52,1.00
2008,02,06,03,53,6.40
2008,02,06,03,54,5.40
2008,02,06,03,55,3.50
2008,02,06,03,56,4.10
2008,02,06,03,57,4.00
2008,02,06,03,58,2.10
2008,02,06,03,59,1.20
2008,02,06,04,00,0.10
2008,02,06,04,01,0.00
2008,02,06,04,02,0.00
2008,02,06,04,03,0.80
2008,02,06,04,04,4.30
2008,02,06,04,05,6.40
2008,02,06,04,06,3.60
2008,02,06,04,07,5.80
2008,02,06,04,08,7.60
2008,02,06,04,09,6.80
2008,02,06,04,10,7.00
2008,02,06,04,11,4.10
2008,02,06,04,12,3.80
2008,02,06,04,13,2.20
2008,02,06,04,14,0.40
2008,02,06,04,15,1.00
2008,02,06,04,16,0.20
2008,02,06,04,17,1.40
2008,02,06,04,18,2.60
2008,02,06,04,19,3.50
2008,02,06,04,20,2.20
2008,02,06,04,21,2.70
2008,02,06,04,22,2.80
2008,02,06,04,23,0.80
2008,02,06,04,24,0.00
2008,02,06,04,25,0.00
2008,02,06,04,26,1.70
2008,02,06,04,27,4.40
2008,02,06,04,28,2.80
2008,02,06,04,29,1.80
2008,02,06,04,30,1.40
2008,02,06,04,31,1.50
2008,02,06,04,32,0.50
2008,02,06,04,33,0.00
2008,02,06,04,34,2.00
2008,02,06,04,35,1.60
2008,02,06,04,36,2.30
2008,02,06,04,37,2.20
2008,02,06,04,38,1.80
2008,02,06,04,39,1.20
2008,02,06,04,40,0.80
2008,02,06,04,41,2.00
2008,02,06,04,42,1.70
2008,02,06,04,43,1.80
2008,02,06,04,44,2.30
2008,02,06,04,45,3.00
2008,02,06,04,46,3.10
2008,02,06,04,47,4.30
2008,02,06,04,48,3.70
2008,02,06,04,49,4.20
2008,02,06,04,50,5.60
2008,02,06,04,51,4.00
2008,02,06,04,52,5.10
2008,02,06,04,53,6.40
2008,02,06,04,54,4.80
2008,02,06,04,55,2.90
2008,02,06,04,56,3.60
2008,02,06,04,57,1.70
2008,02,06,04,58,1.40
2008,02,06,04,59,1.70
2008,02,06,05,00,0.10
2008,02,06,05,01,0.10
2008,02,06,05,02,1.10
2008,02,06,05,03,1.60
2008,02,06,05,04,2.20
2008,02,06,05,05,3.00
2008,02,06,05,06,2.50
2008,02,06,05,07,0.70
2008,02,06,05,08,0.30
2008,02,06,05,09,0.90
2008,02,06,05,10,2.00
2008,02,06,05,11,3.10
2008,02,06,05,12,2.30
2008,02,06,05,13,2.70
2008,02,06,05,14,2.40
2008,02,06,05,15,2.40
2008,02,06,05,16,2.80
2008,02,06,05,17,2.70
2008,02,06,05,18,3.20
2008,02,06,05,19,2.70
2008,02,06,05,20,3.00
2008,02,06,05,21,2.10
2008,02,06,05,22,4.40
2008,02,06,05,23,4.70
2008,02,06,05,24,3.80
2008,02,06,05,25,0.80
2008,02,06,05,26,1.40
2008,02,06,05,27,2.00
2008,02,06,05,28,2.60
2008,02,06,05,29,2.10
2008,02,06,05,30,2.70
2008,02,06,05,31,2.30
2008,02,06,05,32,3.10
2008,02,06,05,33,2.30
2008,02,06,05,34,2.40
2008,02,06,05,35,1.60
2008,02,06,05,36,1.70
2008,02,06,05,37,2.00
2008,02,06,05,38,3.00
2008,02,06,05,39,2.90
2008,02,06,05,40,5.80
2008,02,06,05,41,6.40
2008,02,06,05,42,4.60
2008,02,06,05,43,4.90
2008,02,06,05,44,3.90
2008,02,06,05,45,3.50
2008,02,06,05,46,3.60
2008,02,06,05,47,6.00
2008,02,06,05,48,3.70
2008,02,06,05,49,3.40
2008,02,06,05,50,3.70
2008,02,06,05,51,3.40
2008,02,06,05,52,4.60
2008,02,06,05,53,3.60
2008,02,06,05,54,4.50
2008,02,06,05,55,4.90
2008,02,06,05,56,4.60
2008,02,06,05,57,2.00
2008,02,06,05,58,0.80
2008,02,06,05,59,3.60
2008,02,06,06,00,4.70
2008,02,06,06,01,5.30
2008,02,06,06,02,3.90
2008,02,06,06,03,2.20
2008,02,06,06,04,4.40
2008,02,06,06,05,6.80
2008,02,06,06,06,5.60
2008,02,06,06,07,3.50
2008,02,06,06,08,1.90
2008,02,06,06,09,4.70
2008,02,06,06,10,4.00
2008,02,06,06,11,4.70
2008,02,06,06,12,3.20
2008,02,06,06,13,4.20
2008,02,06,06,14,5.10
2008,02,06,06,15,3.20
2008,02,06,06,16,3.00
2008,02,06,06,17,6.60
2008,02,06,06,18,4.50
2008,02,06,06,19,1.40
2008,02,06,06,20,3.00
2008,02,06,06,21,3.30
2008,02,06,06,22,0.30
2008,02,06,06,23,3.50
2008,02,06,06,24,2.00
2008,02,06,06,25,3.00
2008,02,06,06,26,1.80
2008,02,06,06,27,1.50
2008,02,06,06,28,0.20
2008,02,06,06,29,1.50
2008,02,06,06,30,1.30
2008,02,06,06,31,2.60
2008,02,06,06,32,3.10
2008,02,06,06,33,3.40
2008,02,06,06,34,2.00
2008,02,06,06,35,3.00
2008,02,06,06,36,2.00
2008,02,06,06,37,3.90
2008,02,06,06,38,3.50
2008,02,06,06,39,4.40
2008,02,06,06,40,2.40
2008,02,06,06,41,1.50
2008,02,06,06,42,0.60
2008,02,06,06,43,1.10
2008,02,06,06,44,2.60
2008,02,06,06,45,3.90
2008,02,06,06,46,2.00
2008,02,06,06,47,2.00
2008,02,06,06,48,1.90
2008,02,06,06,49,0.00
2008,02,06,06,50,1.70
2008,02,06,06,51,1.70
2008,02,06,06,52,2.10
2008,02,06,06,53,1.60
2008,02,06,06,54,0.00
2008,02,06,06,55,4.10
2008,02,06,06,56,5.10
2008,02,06,06,57,2.80
2008,02,06,06,58,2.10
2008,02,06,06,59,3.10
2008,02,06,07,00,4.40
2008,02,06,07,01,0.70
2008,02,06,07,02,0.00
2008,02,06,07,03,2.20
2008,02,06,07,04,0.30
2008,02,06,07,05,1.80
2008,02,06,07,06,0.30
2008,02,06,07,07,1.00
2008,02,06,07,08,1.80
2008,02,06,07,09,0.60
2008,02,06,07,10,2.10
2008,02,06,07,11,2.50
2008,02,06,07,12,2.00
2008,02,06,07,13,2.30
2008,02,06,07,14,2.50
2008,02,06,07,15,6.80
2008,02,06,07,16,5.10
2008,02,06,07,17,2.90
2008,02,06,07,18,2.40
2008,02,06,07,19,3.80
2008,02,06,07,20,2.60
2008,02,06,07,21,2.20
2008,02,06,07,22,2.30
2008,02,06,07,23,2.00
2008,02,06,07,24,2.40
2008,02,06,07,25,1.10
2008,02,06,07,26,1.90
2008,02,06,07,27,2.30
2008,02,06,07,28,4.30
2008,02,06,07,29,2.50
2008,02,06,07,30,4.10
2008,02,06,07,31,5.30
2008,02,06,07,32,7.30
2008,02,06,07,33,7.50
2008,02,06,07,34,5.30
2008,02,06,07,35,2.00
2008,02,06,07,36,1.40
2008,02,06,07,37,3.50
2008,02,06,07,38,3.80
2008,02,06,07,39,2.40
2008,02,06,07,40,3.00
2008,02,06,07,41,4.10
2008,02,06,07,42,3.90
2008,02,06,07,43,6.30
2008,02,06,07,44,7.80
2008,02,06,07,45,6.20
2008,02,06,07,46,5.20
2008,02,06,07,47,8.30
2008,02,06,07,48,12.50
2008,02,06,07,49,10.10
2008,02,06,07,50,13.60
2008,02,06,07,51,9.70
2008,02,06,07,52,5.10
2008,02,06,07,53,6.40
2008,02,06,07,54,5.80
2008,02,06,07,55,4.70
2008,02,06,07,56,7.40
2008,02,06,07,57,6.40
2008,02,06,07,58,5.80
2008,02,06,07,59,5.30
2008,02,06,08,00,5.10
2008,02,06,08,01,6.30
2008,02,06,08,02,7.00
2008,02,06,08,03,8.10
2008,02,06,08,04,4.20
2008,02,06,08,05,8.60
2008,02,06,08,06,6.40
2008,02,06,08,07,7.00
2008,02,06,08,08,8.10
2008,02,06,08,09,13.10
2008,02,06,08,10,10.70
2008,02,06,08,11,7.50
2008,02,06,08,12,3.80
2008,02,06,08,13,2.70
2008,02,06,08,14,9.00
2008,02,06,08,15,5.80
2008,02,06,08,16,9.40
2008,02,06,08,17,9.80
2008,02,06,08,18,8.80
2008,02,06,08,19,14.00
2008,02,06,08,20,4.60
2008,02,06,08,21,5.00
2008,02,06,08,22,5.80
2008,02,06,08,23,11.00
2008,02,06,08,24,6.80
2008,02,06,08,25,10.40
2008,02,06,08,26,5.50
2008,02,06,08,27,11.90
2008,02,06,08,28,6.80
2008,02,06,08,29,11.40
2008,02,06,08,30,12.50
2008,02,06,08,31,10.10
2008,02,06,08,32,8.90
2008,02,06,08,33,11.00
2008,02,06,08,34,9.70
2008,02,06,08,35,10.70
2008,02,06,08,36,8.60
2008,02,06,08,37,5.20
2008,02,06,08,38,8.60
2008,02,06,08,39,7.70
2008,02,06,08,40,7.40
2008,02,06,08,41,8.10
2008,02,06,08,42,9.60
2008,02,06,08,43,9.20
2008,02,06,08,44,8.80
2008,02,06,08,45,7.10
2008,02,06,08,46,9.10
2008,02,06,08,47,10.20
2008,02,06,08,48,3.60
2008,02,06,08,49,8.90
2008,02,06,08,50,10.00
2008,02,06,08,51,9.20
2008,02,06,08,52,11.90
2008,02,06,08,53,9.10
2008,02,06,08,54,19.10
2008,02,06,08,55,12.50
2008,02,06,08,56,10.00
2008,02,06,08,57,13.20
2008,02,06,08,58,8.50
2008,02,06,08,59,9.60
2008,02,06,09,00,11.40
2008,02,06,09,01,10.60
2008,02,06,09,02,10.70
2008,02,06,09,03,6.70
2008,02,06,09,04,13.60
2008,02,06,09,05,6.80
2008,02,06,09,06,11.10
2008,02,06,09,07,8.30
2008,02,06,09,08,5.10
2008,02,06,09,09,12.70
2008,02,06,09,10,16.30
2008,02,06,09,11,10.00
2008,02,06,09,12,16.10
2008,02,06,09,13,13.80
2008,02,06,09,14,13.60
2008,02,06,09,15,12.70
2008,02,06,09,16,6.20
2008,02,06,09,17,9.40
2008,02,06,09,18,9.40
2008,02,06,09,19,10.20
2008,02,06,09,20,10.40
2008,02,06,09,21,12.00
2008,02,06,09,22,10.80
2008,02,06,09,23,7.90
2008,02,06,09,24,12.80
2008,02,06,09,25,7.70
2008,02,06,09,26,9.80
2008,02,06,09,27,7.00
2008,02,06,09,28,5.40
2008,02,06,09,29,3.90
2008,02,06,09,30,5.10
2008,02,06,09,31,7.50
2008,02,06,09,32,6.10
2008,02,06,09,33,9.80
2008,02,06,09,34,10.90
2008,02,06,09,35,12.50
2008,02,06,09,36,10.90
2008,02,06,09,37,9.10
2008,02,06,09,38,11.20
2008,02,06,09,39,10.90
2008,02,06,09,40,10.80
2008,02,06,09,41,8.90
2008,02,06,09,42,11.10
2008,02,06,09,43,8.90
2008,02,06,09,44,10.10
2008,02,06,09,45,2.60
2008,02,06,09,46,6.90
2008,02,06,09,47,5.70
2008,02,06,09,48,9.70
2008,02,06,09,49,9.10
2008,02,06,09,50,13.80
2008,02,06,09,51,10.70
2008,02,06,09,52,15.30
2008,02,06,09,53,11.30
2008,02,06,09,54,10.30
2008,02,06,09,55,11.70
2008,02,06,09,56,14.60
2008,02,06,09,57,13.90
2008,02,06,09,58,12.10
2008,02,06,09,59,15.90
2008,02,06,10,00,11.80
2008,02,06,10,01,13.20
2008,02,06,10,02,8.50
2008,02,06,10,03,8.10
2008,02,06,10,04,8.20
2008,02,06,10,05,6.00
2008,02,06,10,06,6.50
2008,02,06,10,07,7.70
2008,02,06,10,08,5.80
2008,02,06,10,09,6.60
2008,02,06,10,10,4.70
2008,02,06,10,11,3.00
2008,02,06,10,12,3.60
2008,02,06,10,13,8.10
2008,02,06,10,14,5.10
2008,02,06,10,15,5.40
2008,02,06,10,16,6.00
2008,02,06,10,17,3.40
2008,02,06,10,18,4.30
2008,02,06,10,19,5.80
2008,02,06,10,20,4.90
2008,02,06,10,21,11.50
2008,02,06,10,22,3.30
2008,02,06,10,23,1.30
2008,02,06,10,24,7.30
2008,02,06,10,25,5.10
2008,02,06,10,26,12.50
2008,02,06,10,27,11.30
2008,02,06,10,28,8.10
2008,02,06,10,29,10.30
2008,02,06,10,30,7.40
2008,02,06,10,31,6.60
2008,02,06,10,32,8.00
2008,02,06,10,33,6.70
2008,02,06,10,34,8.90
2008,02,06,10,35,9.90
2008,02,06,10,36,10.80
2008,02,06,10,37,7.40
2008,02,06,10,38,2.90
2008,02,06,10,39,7.80
2008,02,06,10,40,2.60
2008,02,06,10,41,6.80
2008,02,06,10,42,7.60
2008,02,06,10,43,6.40
2008,02,06,10,44,10.30
2008,02,06,10,45,7.80
2008,02,06,10,46,8.40
2008,02,06,10,47,6.10
2008,02,06,10,48,8.70
2008,02,06,10,49,8.50
2008,02,06,10,50,6.40
2008,02,06,10,51,6.50
2008,02,06,10,52,8.70
2008,02,06,10,53,7.30
2008,02,06,10,54,7.60
2008,02,06,10,55,4.10
2008,02,06,10,56,11.40
2008,02,06,10,57,6.20
2008,02,06,10,58,12.50
2008,02,06,10,59,9.30
2008,02,06,11,00,10.30
2008,02,06,11,01,13.10
2008,02,06,11,02,11.30
2008,02,06,11,03,13.80
2008,02,06,11,04,10.80
2008,02,06,11,05,6.20
2008,02,06,11,06,10.60
2008,02,06,11,07,10.30
2008,02,06,11,08,10.10
2008,02,06,11,09,7.90
2008,02,06,11,10,10.30
2008,02,06,11,11,8.60
2008,02,06,11,12,9.00
2008,02,06,11,13,10.30
2008,02,06,11,14,15.40
2008,02,06,11,15,13.60
2008,02,06,11,16,9.20
2008,02,06,11,17,9.90
2008,02,06,11,18,15.30
2008,02,06,11,19,14.90
2008,02,06,11,20,8.80
2008,02,06,11,21,11.60
2008,02,06,11,22,13.90
2008,02,06,11,23,6.20
2008,02,06,11,24,12.50
2008,02,06,11,25,13.00
2008,02,06,11,26,9.60
2008,02,06,11,27,12.90
2008,02,06,11,28,8.90
2008,02,06,11,29,11.80
2008,02,06,11,30,17.40
2008,02,06,11,31,11.00
2008,02,06,11,32,4.80
2008,02,06,11,33,13.60
2008,02,06,11,34,9.00
2008,02,06,11,35,8.40
2008,02,06,11,36,10.90
2008,02,06,11,37,15.60
2008,02,06,11,38,11.90
2008,02,06,11,39,3.90
2008,02,06,11,40,14.70
2008,02,06,11,41,15.30
2008,02,06,11,42,5.40
2008,02,06,11,43,16.20
2008,02,06,11,44,14.00
2008,02,06,11,45,10.80
2008,02,06,11,46,10.20
2008,02,06,11,47,12.40
2008,02,06,11,48,13.50
2008,02,06,11,49,15.50
2008,02,06,11,50,10.30
2008,02,06,11,51,11.40
2008,02,06,11,52,4.80
2008,02,06,11,53,12.80
2008,02,06,11,54,13.70
2008,02,06,11,55,10.10
2008,02,06,11,56,10.80
2008,02,06,11,57,11.60
2008,02,06,11,58,8.50
2008,02,06,11,59,16.30
2008,02,06,12,00,10.60
2008,02,06,12,01,8.70
2008,02,06,12,02,9.80
2008,02,06,12,03,9.80
2008,02,06,12,04,10.50
2008,02,06,12,05,7.50
2008,02,06,12,06,14.20
2008,02,06,12,07,11.70
2008,02,06,12,08,9.50
2008,02,06,12,09,8.00
2008,02,06,12,10,12.70
2008,02,06,12,11,8.60
2008,02,06,12,12,11.00
2008,02,06,12,13,5.80
2008,02,06,12,14,6.70
2008,02,06,12,15,10.70
2008,02,06,12,16,13.60
2008,02,06,12,17,7.50
2008,02,06,12,18,4.60
2008,02,06,12,19,6.20
2008,02,06,12,20,9.70
2008,02,06,12,21,5.80
2008,02,06,12,22,8.00
2008,02,06,12,23,7.50
2008,02,06,12,24,6.80
2008,02,06,12,25,3.10
2008,02,06,12,26,14.20
2008,02,06,12,27,14.50
2008,02,06,12,28,9.70
2008,02,06,12,29,12.50
2008,02,06,12,30,6.70
2008,02,06,12,31,9.90
2008,02,06,12,32,9.10
2008,02,06,12,33,7.80
2008,02,06,12,34,10.60
2008,02,06,12,35,15.20
2008,02,06,12,36,7.70
2008,02,06,12,37,11.80
2008,02,06,12,38,12.10
2008,02,06,12,39,8.20
2008,02,06,12,40,9.60
2008,02,06,12,41,13.00
2008,02,06,12,42,7.60
2008,02,06,12,43,11.70
2008,02,06,12,44,12.50
2008,02,06,12,45,10.90
2008,02,06,12,46,9.90
2008,02,06,12,47,9.50
2008,02,06,12,48,8.10
2008,02,06,12,49,16.20
2008,02,06,12,50,15.50
2008,02,06,12,51,6.40
2008,02,06,12,52,7.60
2008,02,06,12,53,12.30
2008,02,06,12,54,8.10
2008,02,06,12,55,7.50
2008,02,06,12,56,9.20
2008,02,06,12,57,9.70
2008,02,06,12,58,10.30
2008,02,06,12,59,12.00
2008,02,06,13,00,12.40
2008,02,06,13,01,7.80
2008,02,06,13,02,8.40
2008,02,06,13,03,10.80
2008,02,06,13,04,8.50
2008,02,06,13,05,12.00
2008,02,06,13,06,9.70
2008,02,06,13,07,12.00
2008,02,06,13,08,10.80
2008,02,06,13,09,9.90
2008,02,06,13,10,13.50
2008,02,06,13,11,12.40
2008,02,06,13,12,12.50
2008,02,06,13,13,12.90
2008,02,06,13,14,11.50
2008,02,06,13,15,17.30
2008,02,06,13,16,15.30
2008,02,06,13,17,10.90
2008,02,06,13,18,16.10
2008,02,06,13,19,7.30
2008,02,06,13,20,13.70
2008,02,06,13,21,10.60
2008,02,06,13,22,10.40
2008,02,06,13,23,18.40
2008,02,06,13,24,13.10
2008,02,06,13,25,10.90
2008,02,06,13,26,10.10
2008,02,06,13,27,7.40
2008,02,06,13,28,12.20
2008,02,06,13,29,9.90
2008,02,06,13,30,12.30
2008,02,06,13,31,11.20
2008,02,06,13,32,10.70
2008,02,06,13,33,9.80
2008,02,06,13,34,11.40
2008,02,06,13,35,8.40
2008,02,06,13,36,6.30
2008,02,06,13,37,13.30
2008,02,06,13,38,10.30
2008,02,06,13,39,10.40
2008,02,06,13,40,10.90
2008,02,06,13,41,11.00
2008,02,06,13,42,12.20
2008,02,06,13,43,8.50
2008,02,06,13,44,11.70
2008,02,06,13,45,12.10
2008,02,06,13,46,11.40
2008,02,06,13,47,15.40
2008,02,06,13,48,9.90
2008,02,06,13,49,10.90
2008,02,06,13,50,15.30
2008,02,06,13,51,11.40
2008,02,06,13,52,8.20
2008,02,06,13,53,12.70
2008,02,06,13,54,9.60
2008,02,06,13,55,8.10
2008,02,06,13,56,13.30
2008,02,06,13,57,8.60
2008,02,06,13,58,12.70
2008,02,06,13,59,15.70
2008,02,06,14,00,10.00
2008,02,06,14,01,14.00
2008,02,06,14,02,12.50
2008,02,06,14,03,15.10
2008,02,06,14,04,7.60
2008,02,06,14,05,9.20
2008,02,06,14,06,10.60
2008,02,06,14,07,14.50
2008,02,06,14,08,10.40
2008,02,06,14,09,14.10
2008,02,06,14,10,7.50
2008,02,06,14,11,12.30
2008,02,06,14,12,18.80
2008,02,06,14,13,13.60
2008,02,06,14,14,13.20
2008,02,06,14,15,10.00
2008,02,06,14,16,10.10
2008,02,06,14,17,8.30
2008,02,06,14,18,8.70
2008,02,06,14,19,10.30
2008,02,06,14,20,13.00
2008,02,06,14,21,10.80
2008,02,06,14,22,7.80
2008,02,06,14,23,8.60
2008,02,06,14,24,8.70
2008,02,06,14,25,4.60
2008,02,06,14,26,7.20
2008,02,06,14,27,10.50
2008,02,06,14,28,16.90
2008,02,06,14,29,15.00
2008,02,06,14,30,15.80
2008,02,06,14,31,12.40
2008,02,06,14,32,13.20
2008,02,06,14,33,15.20
2008,02,06,14,34,10.50
2008,02,06,14,35,5.80
2008,02,06,14,36,9.70
2008,02,06,14,37,7.10
2008,02,06,14,38,7.10
2008,02,06,14,39,11.30
2008,02,06,14,40,12.10
2008,02,06,14,41,9.90
2008,02,06,14,42,11.90
2008,02,06,14,43,8.90
2008,02,06,14,44,12.20
2008,02,06,14,45,10.80
2008,02,06,14,46,11.50
2008,02,06,14,47,10.80
2008,02,06,14,48,14.60
2008,02,06,14,49,11.90
2008,02,06,14,50,8.00
2008,02,06,14,51,13.90
2008,02,06,14,52,10.40
2008,02,06,14,53,10.10
2008,02,06,14,54,10.80
2008,02,06,14,55,7.00
2008,02,06,14,56,7.70
2008,02,06,14,57,5.80
2008,02,06,14,58,7.10
2008,02,06,14,59,10.00
2008,02,06,15,00,7.20
2008,02,06,15,01,7.80
2008,02,06,15,02,10.30
2008,02,06,15,03,5.80
2008,02,06,15,04,6.90
2008,02,06,15,05,10.50
2008,02,06,15,06,11.30
2008,02,06,15,07,8.50
2008,02,06,15,08,7.50
2008,02,06,15,09,13.50
2008,02,06,15,10,7.40
2008,02,06,15,11,6.90
2008,02,06,15,12,8.30
2008,02,06,15,13,10.80
2008,02,06,15,14,12.00
2008,02,06,15,15,10.00
2008,02,06,15,16,9.70
2008,02,06,15,17,4.90
2008,02,06,15,18,7.90
2008,02,06,15,19,10.10
2008,02,06,15,20,8.00
2008,02,06,15,21,7.50
2008,02,06,15,22,8.70
2008,02,06,15,23,5.40
2008,02,06,15,24,8.90
2008,02,06,15,25,13.60
2008,02,06,15,26,8.60
2008,02,06,15,27,5.00
2008,02,06,15,28,12.40
2008,02,06,15,29,7.90
2008,02,06,15,30,7.50
2008,02,06,15,31,6.50
2008,02,06,15,32,8.70
2008,02,06,15,33,10.60
2008,02,06,15,34,6.40
2008,02,06,15,35,4.50
2008,02,06,15,36,10.40
2008,02,06,15,37,9.80
2008,02,06,15,38,10.50
2008,02,06,15,39,11.70
2008,02,06,15,40,9.20
2008,02,06,15,41,9.70
2008,02,06,15,42,6.00
2008,02,06,15,43,8.70
2008,02,06,15,44,5.90
2008,02,06,15,45,7.60
2008,02,06,15,46,8.90
2008,02,06,15,47,8.70
2008,02,06,15,48,10.30
2008,02,06,15,49,8.90
2008,02,06,15,50,8.20
2008,02,06,15,51,7.90
2008,02,06,15,52,9.40
2008,02,06,15,53,10.30
2008,02,06,15,54,9.10
2008,02,06,15,55,7.50
2008,02,06,15,56,9.00
2008,02,06,15,57,6.20
2008,02,06,15,58,4.40
2008,02,06,15,59,5.00
2008,02,06,16,00,8.30
2008,02,06,16,01,11.00
2008,02,06,16,02,7.00
2008,02,06,16,03,6.10
2008,02,06,16,04,11.50
2008,02,06,16,05,9.20
2008,02,06,16,06,9.00
2008,02,06,16,07,8.00
2008,02,06,16,08,8.20
2008,02,06,16,09,7.80
2008,02,06,16,10,11.10
2008,02,06,16,11,8.60
2008,02,06,16,12,10.40
2008,02,06,16,13,10.20
2008,02,06,16,14,11.00
2008,02,06,16,15,6.90
2008,02,06,16,16,11.50
2008,02,06,16,17,7.30
2008,02,06,16,18,7.70
2008,02,06,16,19,4.30
2008,02,06,16,20,9.10
2008,02,06,16,21,5.90
2008,02,06,16,22,7.70
2008,02,06,16,23,6.30
2008,02,06,16,24,6.90
2008,02,06,16,25,6.90
2008,02,06,16,26,4.70
2008,02,06,16,27,8.40
2008,02,06,16,28,10.10
2008,02,06,16,29,12.00
2008,02,06,16,30,2.80
2008,02,06,16,31,8.20
2008,02,06,16,32,4.00
2008,02,06,16,33,8.80
2008,02,06,16,34,6.60
2008,02,06,16,35,7.60
2008,02,06,16,36,6.20
2008,02,06,16,37,7.30
2008,02,06,16,38,8.10
2008,02,06,16,39,6.00
2008,02,06,16,40,3.50
2008,02,06,16,41,5.70
2008,02,06,16,42,10.30
2008,02,06,16,43,7.20
2008,02,06,16,44,8.30
2008,02,06,16,45,6.00
2008,02,06,16,46,4.40
2008,02,06,16,47,7.60
2008,02,06,16,48,7.40
2008,02,06,16,49,5.40
2008,02,06,16,50,11.40
2008,02,06,16,51,8.50
2008,02,06,16,52,6.30
2008,02,06,16,53,10.20
2008,02,06,16,54,7.90
2008,02,06,16,55,7.70
2008,02,06,16,56,8.80
2008,02,06,16,57,7.30
2008,02,06,16,58,8.00
2008,02,06,16,59,9.00
2008,02,06,17,00,6.10
2008,02,06,17,01,1.30
2008,02,06,17,02,3.60
2008,02,06,17,03,6.40
2008,02,06,17,04,3.40
2008,02,06,17,05,8.60
2008,02,06,17,06,9.50
2008,02,06,17,07,4.30
2008,02,06,17,08,5.00
2008,02,06,17,09,3.90
2008,02,06,17,10,8.90
2008,02,06,17,11,9.60
2008,02,06,17,12,4.30
2008,02,06,17,13,7.90
2008,02,06,17,14,5.10
2008,02,06,17,15,6.40
2008,02,06,17,16,9.40
2008,02,06,17,17,5.50
2008,02,06,17,18,8.20
2008,02,06,17,19,5.10
2008,02,06,17,20,4.70
2008,02,06,17,21,4.60
2008,02,06,17,22,4.00
2008,02,06,17,23,7.90
2008,02,06,17,24,8.20
2008,02,06,17,25,8.70
2008,02,06,17,26,6.00
2008,02,06,17,27,8.70
2008,02,06,17,28,9.60
2008,02,06,17,29,7.10
2008,02,06,17,30,4.90
2008,02,06,17,31,6.10
2008,02,06,17,32,6.90
2008,02,06,17,33,8.90
2008,02,06,17,34,8.10
2008,02,06,17,35,10.50
2008,02,06,17,36,4.50
2008,02,06,17,37,7.80
2008,02,06,17,38,7.80
2008,02,06,17,39,3.00
2008,02,06,17,40,5.60
2008,02,06,17,41,6.30
2008,02,06,17,42,7.70
2008,02,06,17,43,7.40
2008,02,06,17,44,9.00
2008,02,06,17,45,9.00
2008,02,06,17,46,7.50
2008,02,06,17,47,8.90
2008,02,06,17,48,9.70
2008,02,06,17,49,8.30
2008,02,06,17,50,8.50
2008,02,06,17,51,10.50
2008,02,06,17,52,8.70
2008,02,06,17,53,6.00
2008,02,06,17,54,7.40